Date,TemperatureHighF,TemperatureAvgF,TemperatureLowF,DewpointHighF,DewpointAvgF,DewpointLowF,HumidityHigh,HumidityAvg,HumidityLow,PressureMaxIn,PressureMinIn,WindSpeedMaxMPH,WindSpeedAvgMPH,GustSpeedMaxMPH,PrecipitationSumIn
2013-2-1,55.6,42.0,28.9,32.8,29.2,24.1,85,62,34,30.39,30.07,8,2,10,0.00
2013-2-2,46.9,38.7,31.1,33.5,30.1,26.0,84,72,57,30.45,30.21,4,2,5,0.00
2013-2-3,54.9,40.2,28.4,33.0,28.5,18.3,91,66,25,30.37,30.02,8,3,11,0.00
2013-2-4,60.3,43.0,30.7,28.4,23.6,18.3,74,51,22,30.28,29.83,7,2,8,0.00
2013-2-5,58.6,47.6,33.6,27.0,19.3,13.6,60,35,21,30.11,29.70,17,9,28,0.00
2013-2-6,51.8,39.6,26.6,25.5,19.1,11.7,76,47,22,30.25,29.89,8,3,12,0.00
2013-2-7,44.1,37.3,29.1,27.4,12.4,1.9,65,38,22,30.00,29.78,26,8,34,0.00
2013-2-8,55.9,28.7,24.8,20.4,16.6,11.5,72,60,49,30.05,29.72,13,5,19,0.00
2013-2-9,37.9,29.7,21.4,17.9,14.4,10.1,69,53,32,30.17,29.98,9,4,14,0.00
2013-2-10,40.6,30.7,22.3,24.0,15.7,8.9,73,55,31,30.23,30.01,13,4,17,0.00
2013-2-11,44.6,33.4,21.7,19.0,14.0,9.0,68,46,25,30.34,30.09,8,2,11,0.00
2013-2-12,51.3,37.0,24.1,25.0,19.8,14.0,69,51,28,30.47,30.15,9,3,11,0.00
2013-2-13,53.6,40.1,27.3,27.5,24.0,18.3,75,54,31,30.50,30.13,8,3,10,0.00
2013-2-14,53.4,41.6,31.3,31.2,27.3,23.3,76,58,38,30.47,30.20,12,4,19,0.00
2013-2-15,58.1,43.8,32.0,30.6,25.7,20.1,73,51,24,30.52,30.13,10,4,12,0.00
2013-2-16,53.8,43.4,29.8,26.4,20.1,10.4,72,43,21,30.40,29.95,9,2,12,0.00
2013-2-17,51.1,40.8,31.6,29.9,19.2,6.8,66,42,28,30.10,29.85,13,5,16,0.00
2013-2-18,52.0,38.3,28.0,25.5,16.6,8.8,58,43,22,30.11,29.64,16,4,21,0.00
2013-2-19,42.6,33.8,27.3,31.0,17.3,8.2,93,53,25,29.77,29.47,16,8,25,0.00
2013-2-20,42.1,32.2,25.2,20.3,15.0,7.8,72,51,26,30.04,29.77,11,5,14,0.00
2013-2-21,43.9,33.9,24.4,21.5,13.2,5.5,74,44,22,30.18,29.95,8,4,12,0.00
2013-2-22,53.8,39.1,26.8,27.0,17.7,7.9,66,44,22,30.30,29.90,14,3,20,0.33
2013-2-24,44.6,37.6,28.8,17.3,6.2,1.0,59,27,21,30.34,30.16,10,4,12,0.00
2013-2-25,54.1,32.8,24.4,15.4,7.1,0.5,51,35,21,30.33,29.91,17,4,22,0.00
2013-2-26,45.1,33.9,23.9,15.7,8.8,1.8,61,37,21,30.42,30.16,10,4,11,0.00
2013-2-27,57.7,40.0,23.4,19.6,10.2,1.4,47,30,20,30.49,30.05,8,3,11,0.00
2013-2-28,61.5,46.9,34.3,34.6,24.9,9.6,66,43,28,30.45,30.15,11,3,14,0.00